Simultaneous Nadir Overpasses (SNOs) Predictions

Prediction of SNOs between GOES-17 and TERRA Satellite Orbit:

Table of predicted SNOs for the next 14.0 days since TLE Epoch: 4/4/2020
Index Date Time (GOES-17) GOES-17 Lat,Lon TERRA Lat,Lon Distance(km) Time Diff (sec)
1 04/05/2020 07:28:32 -0.02,-137.19 0.45,-135.00 248.91 80
2 04/05/2020 19:49:46 0.02,-137.19 0.66,-140.15 336.66 80
3 04/07/2020 19:37:34 0.02,-137.18 -0.00,-137.19 3.23 80
4 04/09/2020 19:28:02 0.02,-137.16 -0.61,-134.23 333.20 80
5 04/10/2020 07:49:25 -0.02,-137.14 -0.48,-139.42 258.44 80
6 04/12/2020 07:34:32 -0.02,-137.11 0.13,-136.45 75.29 80
7 04/14/2020 07:22:19 -0.02,-137.08 0.75,-133.49 408.35 80
8 04/14/2020 19:43:34 0.02,-137.07 0.36,-138.64 178.23 80
9 04/16/2020 19:34:01 0.01,-137.03 -0.26,-135.67 154.44 80
10 04/17/2020 07:55:25 -0.01,-137.02 -0.82,-140.86 437.19 80




NCC Satellite Simultaneous Nadir Overpasses (SNOs) Prediction Service
